Location: Barcelona
(41.3830°N, 2.1830°E)
Time: 13:36:19
(UTC+02:00)

ISS - Pass Details

Date: 07 April 2020
Orbit: 417 x 419 km, 51.6° (Epoch: 31 May)

Event Time Altitude Azimuth Distance (km) Brightness Sun altitude
Rises 20:59:52 0° 298° (WNW) 2,364 2.1 -7.5°
Reaches altitude 10° 21:02:07 10° 287° (WNW) 1,496 0.8 -7.9°
Maximum altitude 21:05:07 30° 224° (SW) 767 -2.1 -8.4°
Drops below altitude 10° 21:08:09 10° 160° (SSE) 1,507 -1.3 -9.0°
Enters shadow 21:09:10 - 154° (SSE) 1,893 -0.8 -9.2°
